TimeEDT,TemperatureF,Dew PointF,Humidity,Sea Level PressureIn,VisibilityMPH,Wind Direction,Wind SpeedMPH,Gust SpeedMPH,PrecipitationIn,Events,Conditions,WindDirDegrees,DateUTC
12:53 AM,61.0,55.0,81,30.24,10.0,Calm,Calm,-,N/A,,Clear,0,2013-06-21 04:53:00
1:53 AM,57.9,55.0,90,30.23,10.0,Calm,Calm,-,N/A,,Clear,0,2013-06-21 05:53:00
2:53 AM,57.9,55.0,90,30.23,10.0,Calm,Calm,-,N/A,,Clear,0,2013-06-21 06:53:00
3:53 AM,57.0,55.0,93,30.23,10.0,Calm,Calm,-,N/A,,Clear,0,2013-06-21 07:53:00
4:53 AM,57.0,54.0,89,30.24,10.0,Calm,Calm,-,N/A,,Clear,0,2013-06-21 08:53:00
5:53 AM,57.0,54.0,89,30.26,10.0,Calm,Calm,-,N/A,,Clear,0,2013-06-21 09:53:00
6:53 AM,63.0,55.9,78,30.26,10.0,Calm,Calm,-,N/A,,Clear,0,2013-06-21 10:53:00
7:53 AM,66.0,54.0,65,30.26,10.0,SW,9.2,-,N/A,,Clear,230,2013-06-21 11:53:00
8:53 AM,69.1,55.9,63,30.26,10.0,SW,9.2,-,N/A,,Clear,230,2013-06-21 12:53:00
9:53 AM,72.0,57.9,61,30.25,10.0,SW,5.8,-,N/A,,Clear,220,2013-06-21 13:53:00
10:53 AM,75.0,60.1,60,30.26,10.0,WSW,4.6,-,N/A,,Clear,250,2013-06-21 14:53:00
11:53 AM,78.1,62.1,58,30.25,10.0,West,6.9,-,N/A,,Clear,270,2013-06-21 15:53:00
12:53 PM,79.0,62.1,56,30.25,10.0,Variable,6.9,-,N/A,,Clear,0,2013-06-21 16:53:00
1:53 PM,81.0,62.1,52,30.22,10.0,SW,8.1,-,N/A,,Partly Cloudy,220,2013-06-21 17:53:00
2:53 PM,82.0,60.1,47,30.22,10.0,WSW,11.5,-,N/A,,Mostly Cloudy,240,2013-06-21 18:53:00
3:53 PM,82.9,60.1,46,30.20,10.0,WSW,13.8,18.4,N/A,,Partly Cloudy,240,2013-06-21 19:53:00
4:53 PM,82.9,60.1,46,30.19,10.0,SW,9.2,-,N/A,,Clear,220,2013-06-21 20:53:00
5:53 PM,82.0,60.1,47,30.19,10.0,SW,9.2,-,N/A,,Partly Cloudy,230,2013-06-21 21:53:00
6:53 PM,81.0,59.0,47,30.19,10.0,SW,5.8,-,N/A,,Clear,220,2013-06-21 22:53:00
7:53 PM,79.0,60.1,52,30.19,10.0,SSE,3.5,-,N/A,,Clear,160,2013-06-21 23:53:00
8:53 PM,75.9,60.1,58,30.20,10.0,SSE,4.6,-,N/A,,Clear,160,2013-06-22 00:53:00
9:53 PM,73.0,57.0,57,30.21,10.0,SSE,4.6,-,N/A,,Clear,150,2013-06-22 01:53:00
10:53 PM,70.0,55.9,61,30.21,10.0,SE,3.5,-,N/A,,Clear,140,2013-06-22 02:53:00
11:53 PM,69.1,55.9,63,30.21,10.0,Calm,Calm,-,N/A,,Clear,0,2013-06-22 03:53:00